Location: Lombard
(41.8800°N, 88.0080°W)
Time: 18:31:01
(UTC-06:00)

Vanguard 3 - Pass Details

Date: 15 December 2023
Orbit: 508 x 3239 km, 33.4° (Epoch: 23 February)

Event Time Altitude Azimuth Distance (km) Brightness Sun altitude
Rises 17:08:42 0° 223° (SW) 7,020 13.3 -8.6°
Reaches altitude 10° 17:13:39 10° 217° (SW) 6,123 12.6 -9.4°
Maximum altitude 17:31:27 44° 155° (SSE) 3,801 10.5 -12.5°
Enters shadow 17:44:24 14° 93° (E) 4,760 10.5 -14.8°
